EW1604 Weather Reports


time (UTC)temp
C
wind
direction
speed
KPH
gust
KPH
rain 1hr
cm
rain 24hr
cm
rain mn
cm
humidity
%
barometer
mb
20260510190041 28 131 1.6 8.0 0.00 0.76 0.03 72 1015.3
20260510184540 28 181 4.8 8.0 0.00 0.89 0.03 70 1015.5
20260510183038 28 157 3.2 8.0 0.00 0.89 0.03 71 1015.7
20260510181536 28 341 1.6 6.4 0.00 0.89 0.03 71 1015.8
20260510180041 27 104 0.0 3.2 0.00 0.89 0.03 72 1016.1
20260510174532 27 30 0.0 3.2 0.00 0.97 0.03 70 1016.4
20260510173035 27 152 0.0 6.4 0.00 0.97 0.03 74 1016.5
20260510171535 27 156 0.0 4.8 0.00 0.97 0.03 73 1016.6
20260510170028 27 116 0.0 4.8 0.00 0.97 0.03 76 1016.7
20260510164524 27 10 0.0 3.2 0.00 1.14 0.03 76 1016.8
20260510163023 26 153 1.6 9.7 0.00 1.14 0.03 75 1016.9
20260510161521 26 130 0.0 6.4 0.00 1.14 0.03 78 1016.8
20260510160020 26 128 0.0 3.2 0.00 1.14 0.03 84 1016.6
20260510154516 25 158 1.6 6.4 0.00 1.93 0.03 85 1016.6
20260510153030 24 309 0.0 8.0 0.00 1.93 0.03 88 1016.8
20260510151515 24 257 0.0 4.8 0.00 1.93 0.03 89 1016.8
20260510150008 23 85 0.0 4.8 0.00 1.93 0.03 90 1016.9
20260510144509 23 118 0.0 6.4 0.00 2.87 0.03 92 1016.8
20260510143001 22 172 0.0 3.2 0.00 2.87 0.03 96 1017.0
20260510141600 21 106 0.0 4.8 0.00 2.87 0.03 97 1017.0
20260510140056 21 108 0.0 1.6 0.00 2.87 0.03 98 1017.0
20260510134556 20 113 0.0 4.8 0.00 3.20 0.03 98 1016.7
20260510133052 20 154 0.0 1.6 0.00 3.20 0.03 99 1016.5
20260510131549 18 228 0.0 0.0 0.00 3.20 0.03 99 1016.6
20260510130050 18 158 0.0 3.2 0.00 3.20 0.03 99 1016.5
20260510124557 18 108 0.0 1.6 0.00 3.28 0.03 99 1016.4
20260510123043 18 134 0.0 0.0 0.00 3.28 0.03 99 1016.1
20260510121542 18 100 0.0 0.0 0.00 3.28 0.03 99 1015.8
20260510120025 17 100 0.0 0.0 0.00 3.28 0.03 99 1015.5
20260510114514 17 139 0.0 3.2 0.00 3.28 0.03 99 1015.2
20260510113005 17 107 0.0 1.6 0.03 3.28 0.03 99 1014.9
20260510111503 17 80 0.0 1.6 0.03 3.28 0.03 99 1014.7
20260510110005 17 112 0.0 3.2 0.03 3.28 0.03 99 1014.5
20260510104501 17 98 0.0 0.0 0.03 3.33 0.03 99 1014.5
20260510103059 17 139 0.0 1.6 0.00 3.30 0.00 99 1014.3
20260510101557 17 85 0.0 1.6 0.00 3.30 0.00 99 1014.0
20260510100101 17 143 0.0 0.0 0.00 3.30 0.00 99 1013.9
20260510094555 17 96 0.0 0.0 0.00 3.30 0.00 99 1013.9
20260510093101 17 95 0.0 0.0 0.00 3.30 0.00 99 1013.6
20260510091552 17 91 0.0 0.0 0.00 3.30 0.00 99 1013.5
20260510090050 17 305 0.0 0.0 0.00 3.30 0.00 99 1013.4
20260510084548 17 174 0.0 0.0 0.00 3.45 0.00 99 1013.0
20260510083059 17 314 0.0 0.0 0.00 3.45 0.00 99 1012.9
20260510081546 17 315 0.0 0.0 0.00 3.45 0.00 99 1012.8
20260510080045 17 149 0.0 0.0 0.00 3.45 0.00 99 1012.7
20260510074545 18 149 0.0 0.0 0.00 3.51 0.00 99 1012.7
20260510073045 18 150 0.0 0.0 0.00 3.51 0.00 99 1012.7
20260510071543 18 149 0.0 0.0 0.00 3.51 0.00 99 1012.7
20260510070041 18 146 0.0 0.0 0.00 3.51 0.00 99 1012.7
20260510064541 18 160 0.0 0.0 0.00 3.61 0.00 99 1012.8
20260510063040 18 198 0.0 0.0 0.00 3.61 0.00 99 1012.7
20260510061538 18 198 0.0 0.0 0.00 3.61 0.00 99 1012.9
20260510060038 18 198 0.0 0.0 0.00 3.61 0.00 99 1013.1
20260510054538 18 195 0.0 0.0 0.00 3.61 0.00 99 1013.0
20260510053036 18 195 0.0 0.0 0.00 3.61 0.00 99 1013.0
20260510051534 18 195 0.0 0.0 0.00 3.61 0.00 99 1012.9
20260510050033 18 195 0.0 0.0 0.00 3.61 0.00 99 1013.1
20260510044532 18 195 0.0 0.0 0.00 3.61 3.61 99 1013.2
20260510043031 19 195 0.0 0.0 0.00 3.61 3.61 99 1013.2
20260510041530 19 243 0.0 1.6 0.00 3.61 3.61 99 1013.1
20260510040030 19 123 0.0 1.6 0.00 3.61 3.61 99 1013.6
20260510034530 19 214 0.0 0.0 0.00 3.61 3.61 99 1014.1
20260510033029 19 214 0.0 0.0 0.00 3.61 3.61 99 1014.4
20260510031528 19 230 0.0 3.2 0.00 3.61 3.61 99 1014.0
20260510030029 19 128 0.0 1.6 0.00 3.61 3.61 99 1013.0
20260510024528 19 142 0.0 0.0 0.00 3.61 3.61 99 1013.5
20260510023031 19 142 0.0 0.0 0.03 3.61 3.61 99 1013.4
20260510021530 19 142 0.0 0.0 0.03 3.61 3.61 99 1013.1
20260510020026 19 140 0.0 3.2 0.05 3.61 3.61 99 1012.8
20260510014526 19 89 0.0 1.6 0.05 3.71 3.61 99 1012.8
20260510013026 19 132 0.0 0.0 0.03 3.68 3.58 99 1013.0
20260510011525 19 142 0.0 0.0 0.05 3.68 3.58 99 1013.2
20260510010024 19 142 0.0 0.0 0.03 3.66 3.56 99 1012.9
20260510004524 19 216 0.0 0.0 0.05 3.68 3.56 98 1012.8
20260510003024 19 139 0.0 0.0 0.08 3.68 3.56 98 1012.4
20260510001522 19 205 0.0 0.0 0.05 3.66 3.53 98 1012.8
20260510000028 19 226 0.0 1.6 0.05 3.66 3.53 98 1013.1
20260509234535 19 152 0.0 4.8 0.03 3.68 3.51 98 1013.1
20260509233020 19 129 0.0 4.8 0.08 3.66 3.48 98 1010.8
20260509231520 20 133 0.0 0.0 0.18 3.66 3.48 98 1011.9
20260509230019 20 133 0.0 3.2 0.25 3.66 3.48 98 1012.2
20260509224529 20 306 0.0 1.6 0.28 3.86 3.48 98 1012.3
20260509223019 20 3 0.0 0.0 0.23 3.78 3.40 98 1012.0
20260509221518 20 152 1.6 6.4 0.15 3.68 3.30 98 1011.3
20260509220017 20 108 0.0 3.2 0.10 3.61 3.23 98 1011.4
20260509214517 20 131 0.0 0.0 0.10 4.14 3.20 98 1011.8
20260509213016 20 119 0.0 0.0 0.13 4.11 3.17 98 1011.7
20260509211515 20 115 0.0 1.6 0.15 4.09 3.15 98 1011.7
20260509210015 20 116 0.0 1.6 0.18 4.06 3.12 98 1011.4
20260509204515 20 8 0.0 0.0 0.18 4.90 3.10 98 1011.6
20260509203014 20 121 0.0 0.0 0.10 4.83 3.02 98 1011.5
20260509201516 20 342 0.0 3.2 0.10 4.80 3.00 98 1011.8
20260509200013 20 34 0.0 1.6 0.05 4.75 2.92 98 1012.0
20260509194513 20 155 0.0 3.2 0.08 4.88 2.90 98 1011.2
20260509193012 20 89 0.0 0.0 0.10 4.88 2.90 98 1011.1
20260509191511 20 135 0.0 3.2 0.10 4.85 2.87 98 1010.9